Regional Weather Roundup
Issued by NWS

Home | Current Version | Previous Version | Text Only | Print | Product List | Glossary Off
Versions: 1 2 3 4 5 6 7 8 9 10 11 12 13 14 15 16 17 18 19 20 21 22 23 24 25 26 27 28 29 30 31 32 33 34 35 36 37 38 39 40 41 42 43 44 45 46 47 48 49 50

000
ASUS43 KDTX 211201
RWRMI
MICHIGAN HOURLY REGIONAL WEATHER ROUNDUP
NATIONAL WEATHER SERVICE DETROIT/PONTIAC MI
800 AM EDT MON APR 21 2014

NOTE: "FAIR" INDICATES FEW OR NO CLOUDS BELOW 12,000 FEET WITH NO
SIGNIFICANT WEATHER AND/OR OBSTRUCTION TO VISIBILITY.

MIZ047>049-052>055-059>063-066>070-074>076-081>083-211300-
SOUTHEAST LOWER MICHIGAN

CITY           SKY/WX    TMP DP  RH WIND       PRES   REMARKS
ADRIAN         SUNNY     45  40  82 CALM      30.03F
6HR MIN TEMP:  40; 6HR MAX TEMP:  46;

ALMA           PTSUNNY   56  35  46 S7        29.97F
ANN ARBOR      SUNNY     44  38  79 CALM      30.03F
BAD AXE        PTSUNNY   54  39  57 S6        29.99F
6HR MIN TEMP:  50; 6HR MAX TEMP:  55;

CARO           CLOUDY    58  35  42 S7        29.98F
DETROIT CITY   SUNNY     50  36  58 CALM      30.04S
6HR MIN TEMP:  45; 6HR MAX TEMP:  52;

DETROIT        CLOUDY    49  40  71 S5        30.04F
6HR MIN TEMP:  43; 6HR MAX TEMP:  49;

FLINT          CLOUDY    56  36  47 SW7       30.00F
6HR MIN TEMP:  46; 6HR MAX TEMP:  56;

GROSSE ILE     SUNNY     46  43  87 CALM      30.03S
HILLSDALE      MOSUNNY   55  36  48 CALM      30.02F
6HR MIN TEMP:  47; 6HR MAX TEMP:  55;

HOWELL         CLOUDY    53  35  48 S3        30.01F
6HR MIN TEMP:  46; 6HR MAX TEMP:  53;


CITY           SKY/WX    TMP DP  RH WIND       PRES   REMARKS
JACKSON        PTSUNNY   54  41  61 SW3       30.01F
6HR MIN TEMP:  45; 6HR MAX TEMP:  54;

LAMBERTVILLE   SUNNY     46  43  87 CALM      30.03F
LANSING        CLOUDY    58  34  40 S3        30.00F
6HR MIN TEMP:  52; 6HR MAX TEMP:  58;

LAPEER         CLOUDY    49  42  75 CALM      30.01F
MASON          CLOUDY    53  38  57 S3        30.01S
MONROE         SUNNY     45  41  87 CALM      30.02F
PONTIAC        PTSUNNY   50  37  61 CALM      30.02S
6HR MIN TEMP:  44; 6HR MAX TEMP:  51;

PORT HOPE        N/A     56  37  49 SW6       29.96F
6HR MIN TEMP:  43; 6HR MAX TEMP:  57;

PORT HURON     CLOUDY    46  39  76 S3        30.02F
TRI CITIES     PTSUNNY   56  38  50 S9        29.97F
6HR MIN TEMP:  56; 6HR MAX TEMP:  61; 6HR PCP: TRACE;

TROY           CLOUDY    50  35  55 CALM      30.04S
SAGINAW HB     CLOUDY    57  36  44 S9        29.97F
YPSILANTI      SUNNY     49  40  71 CALM      30.03F
6HR MIN TEMP:  42; 6HR MAX TEMP:  49;

$$
MIZ043>046-050>051-056>058-064>065-071>073-077>080-211300-
SOUTHWEST LOWER MICHIGAN

CITY           SKY/WX    TMP DP  RH WIND       PRES   REMARKS
BATTLE CREEK   CLOUDY    55  37  50 S6        30.01F
6HR MIN TEMP:  49; 6HR MAX TEMP:  56;

BENTON HARBOR  CLOUDY    58  38  47 S7        29.99S
6HR MIN TEMP:  57; 6HR MAX TEMP:  60;

BIG RAPIDS     MOSUNNY   60  39  46 SW6       29.94S
6HR MIN TEMP:  53; 6HR MAX TEMP:  60;

COLDWATER      PTSUNNY   50  40  70 CALM      30.01F
6HR MIN TEMP:  44; 6HR MAX TEMP:  50;

FREMONT        FAIR      58  40  51 SW6       29.95F
HOLLAND        CLOUDY    63  41  44 SW10      29.98F
6HR MIN TEMP:  58; 6HR MAX TEMP:  65; 6HR PCP: TRACE;

GRAND RAPIDS   CLOUDY    61  38  42 SW7       29.98F
6HR MIN TEMP:  56; 6HR MAX TEMP:  61;

IONIA          PTSUNNY   57  36  46 SW6       29.97F
KALAMAZOO      CLOUDY    54  39  57 S5        30.01S
6HR MIN TEMP:  51; 6HR MAX TEMP:  57;

LUDINGTON      DRIZZLE   49  41  73 SW8       29.95S
MARSHALL       CLOUDY    55  37  50 S3        30.00F
MOUNT PLEASANT PTSUNNY   57  39  51 E3        29.95F
MUSKEGON       CLOUDY    58  39  49 S12       29.96F
6HR MIN TEMP:  58; 6HR MAX TEMP:  67; 6HR PCP: TRACE;

SOUTH HAVEN    CLOUDY    59  38  45 S3        29.99S
$$
MIZ016>042-211300-
NORTHERN LOWER MICHIGAN

CITY           SKY/WX    TMP DP  RH WIND       PRES   REMARKS
ALPENA         CLOUDY    46  36  68 CALM      29.95F
6HR MIN TEMP:  44; 6HR MAX TEMP:  48; 6HR PCP: TRACE;

BEAVER ISLAND  CLOUDY    40  39  97 E5        29.93F FOG
6HR MIN TEMP:  40; 6HR MAX TEMP:  43;

BELLAIRE       CLOUDY    45  43  93 NW3       29.92F FOG
6HR MIN TEMP:  44; 6HR MAX TEMP:  49;

CADILLAC       MOSUNNY   54  42  63 SW6       29.92F
CHARLEVOIX     LGT RAIN  47  45  92 CALM      29.94F
6HR MIN TEMP:  40; 6HR MAX TEMP:  47;

FRANKFORT      CLOUDY    49  37  62 SW6       29.93S
GAYLORD        LGT RAIN  47  45  93 CALM      29.93F
6HR MIN TEMP:  46; 6HR MAX TEMP:  53; 6HR PCP: TRACE;

GRAYLING       CLOUDY    48  44  87 CALM      29.94S
6HR MIN TEMP:  46; 6HR MAX TEMP:  53;

HARBOR SPRINGS RAIN      47  45  93 E7        29.92F
HOUGHTON LAKE  PTSUNNY   57  37  47 SW7       29.93F
6HR MIN TEMP:  49; 6HR MAX TEMP:  58;

MANISTEE       CLOUDY    54  37  54 SW6       29.94S
OSCODA         PTSUNNY   52  42  68 S5        29.93F
PELLSTON       LGT RAIN  44  41  89 SE3       29.94F FOG
6HR MIN TEMP:  42; 6HR MAX TEMP:  44; 6HR PCP:  0.07;

ROGERS CITY    CLOUDY    45  41  85 S3        29.96S
TRAVERSE CITY  PTSUNNY   44  37  76 N3        29.91S
6HR MIN TEMP:  42; 6HR MAX TEMP:  51;

$$
MIZ007>008-015-211300-
EASTERN UPPER MICHIGAN

CITY           SKY/WX    TMP DP  RH WIND       PRES   REMARKS
KINROSS        CLOUDY    36  36 100 E3        29.95S
6HR MIN TEMP:  34; 6HR MAX TEMP:  36;

MACKINAC ISLAN CLOUDY    37  37 100 SE3       29.94F FOG
6HR MIN TEMP:  36; 6HR MAX TEMP:  43; 6HR PCP:  0.05;

NEWBERRY       FOG       34  34 100 E5        29.93F VSB<1/4 WCI  30
6HR MIN TEMP:  32; 6HR MAX TEMP:  35;

S. S. MARIE    FOG       38  38 100 CALM      29.95S VSB<1/4
6HR MIN TEMP:  37; 6HR MAX TEMP:  38; 6HR PCP: TRACE;

MUNISING         N/A     34  31  88 S3        29.92S
6HR MIN TEMP:  33; 6HR MAX TEMP:  39;

$$
MIZ004>006-011>014-085-211300-
CENTRAL UPPER MICHIGAN

CITY           SKY/WX    TMP DP  RH WIND       PRES   REMARKS
MANISTIQUE     FOG       36  36  99 MISG      29.93S VSB<1/4
6HR MIN TEMP:  33; 6HR MAX TEMP:  36;

ESCANABA       CLOUDY    37  36  93 CALM      29.92F VSB<1/4
6HR MIN TEMP:  34; 6HR MAX TEMP:  37;

MENOMINEE      CLOUDY    43  39  87 CALM      29.91F VSB 1
6HR MIN TEMP:  37; 6HR MAX TEMP:  48; 6HR PCP:  0.01;

SAWYER-GWINN   SUNNY     34  32  93 CALM      29.91F
$$
MIZ001>003-009>011-084-211300-
WESTERN UPPER MICHIGAN

CITY           SKY/WX    TMP DP  RH WIND       PRES   REMARKS
IRON MOUNTAIN  CLOUDY    39  38  96 CALM      29.90F FOG
6HR MIN TEMP:  37; 6HR MAX TEMP:  43;

HOUGHTON       PTCLDY    38  28  67 S6        29.88F WCI  33
6HR MIN TEMP:  32; 6HR MAX TEMP:  45;

COPPER HARBOR    N/A     40  31  70 SW8       29.88F WCI  34
6HR MIN TEMP:  31; 6HR MAX TEMP:  43;

IRONWOOD       MOCLDY    46  41  81 S9        29.83F
6HR MIN TEMP:  30; 6HR MAX TEMP:  46;

$$

ABBREVIATIONS USED IN REMARKS
   TC - TEMPERATURE IN CELSIUS
  WCI - WIND CHILL INDEX
   HX - HEAT INDEX
  VSB - VISIBILITY




USA.gov is the U.S. government's official web portal to all federal, state and local government web resources and services.